Eugene, Missouri, United States (65032)
Lat: 38.35N, Lon: 92.4W
Wx Zone: MOZ048
Local Info
Past Weather Observations for Today

NOTE: This archive is for the closest National Weather Service station to Eugene. Information may differ from the station used for current weather conditions.

Click here for Long-term Archive

Time Weather Temperature Dewpoint Humidity Pressure Winds Precip Visibility
12:15
Clear
45°F / 7°C 19°F / -7°C 37% 30.39 in
(1029 mb)
NNW 12.7 mph
(NNW 20 kph)
- 10SM
11:55
Clear
45°F / 7°C 18°F / -8°C 34% 30.39 in
(1029 mb)
N 11.5 mph
(N 19 kph)
- 10SM
11:35
Clear
45°F / 7°C 19°F / -7°C 37% 30.39 in
(1029 mb)
N 13.8 mph
(N 22 kph)
- 10SM
11:15
Clear
45°F / 7°C 18°F / -8°C 34% 30.39 in
(1029 mb)
NNE 10.4 mph
(NNE 17 kph)
- 10SM
10:55
Clear
43°F / 6°C 19°F / -7°C 39% 30.39 in
(1029 mb)
NNW 9.2 mph
(NNW 15 kph)
- 10SM
10:35
Clear
43°F / 6°C 21°F / -6°C 42% 30.39 in
(1029 mb)
NW 9.2 mph
(NW 15 kph)
- 10SM
10:15
Clear
43°F / 6°C 21°F / -6°C 42% 30.39 in
(1029 mb)
NNW 10.4 mph
(NNW 17 kph)
- 10SM
09:55
Clear
43°F / 6°C 21°F / -6°C 42% 30.36 in
(1028 mb)
NNW 9.2 mph
(NNW 15 kph)
- 10SM
09:35
Clear
41°F / 5°C 23°F / -5°C 49% 30.36 in
(1028 mb)
N 12.7 mph
(N 20 kph)
- 10SM
09:15
Clear
41°F / 5°C 23°F / -5°C 49% 30.36 in
(1028 mb)
N 10.4 mph
(N 17 kph)
- 10SM
08:55
Partly Cloudy
41°F / 5°C 25°F / -4°C 53% 30.36 in
(1028 mb)
N 12.7 mph
(N 20 kph)
- 10SM
08:35
Partly Cloudy
39°F / 4°C 27°F / -3°C 61% 30.36 in
(1028 mb)
NNW 9.2 mph
(NNW 15 kph)
- 10SM
08:15
Mostly Cloudy
39°F / 4°C 27°F / -3°C 61% 30.33 in
(1027 mb)
NNW 10.4 mph
(NNW 17 kph)
- 10SM
07:55
Overcast
43°F / 6°C 28°F / -2°C 57% 30.33 in
(1027 mb)
N 12.7 mph
(N 20 kph)
- 10SM
07:35
Overcast
43°F / 6°C 30°F / -1°C 61% 30.3 in
(1026 mb)
NNW 6.9 mph
(NNW 11 kph)
- 10SM
07:15
Overcast
45°F / 7°C 32°F / 0°C 61% 30.3 in
(1026 mb)
NNW 10.4 mph
(NNW 17 kph)
- 10SM
06:55
Overcast
45°F / 7°C 34°F / 1°C 66% 30.27 in
(1025 mb)
N 6.9 mph
(N 11 kph)
- 10SM
06:35
Overcast
46°F / 8°C 34°F / 1°C 62% 30.27 in
(1025 mb)
N 10.4 mph
(N 17 kph)
- 10SM
06:15
Overcast
48°F / 9°C 36°F / 2°C 62% 30.24 in
(1024 mb)
N 11.5 mph
(N 19 kph)
- 10SM
05:55
Overcast
48°F / 9°C 37°F / 3°C 66% 30.24 in
(1024 mb)
NNW 11.5 mph
(NNW 19 kph)
- 10SM
05:35
Overcast
48°F / 9°C 37°F / 3°C 66% 30.24 in
(1024 mb)
NNW 8.1 mph
(NNW 13 kph)
- 10SM
05:15
Overcast
48°F / 9°C 37°F / 3°C 66% 30.24 in
(1024 mb)
N 5.8 mph
(N 9 kph)
- 10SM
04:55
Overcast
48°F / 9°C 37°F / 3°C 66% 30.21 in
(1023 mb)
N 10.4 mph
(N 17 kph)
- 10SM
04:35
Overcast
48°F / 9°C 39°F / 4°C 71% 30.21 in
(1023 mb)
N 9.2 mph
(N 15 kph)
- 10SM
04:15
Mostly Cloudy
48°F / 9°C 39°F / 4°C 71% 30.21 in
(1023 mb)
NNW 10.4 mph
(NNW 17 kph)
- 10SM
03:55
Overcast
48°F / 9°C 39°F / 4°C 71% 30.18 in
(1022 mb)
NNW 8.1 mph
(NNW 13 kph)
- 10SM
03:35
Overcast
48°F / 9°C 39°F / 4°C 71% 30.18 in
(1022 mb)
NNW 8.1 mph
(NNW 13 kph)
- 10SM
03:15
Overcast
48°F / 9°C 39°F / 4°C 71% 30.18 in
(1022 mb)
NNW 3.5 mph
(NNW 6 kph)
- 10SM
02:55
Overcast
48°F / 9°C 39°F / 4°C 71% 30.15 in
(1021 mb)
NNW 5.8 mph
(NNW 9 kph)
- 10SM
02:35
Overcast
48°F / 9°C 39°F / 4°C 71% 30.15 in
(1021 mb)
NNW 4.6 mph
(NNW 7 kph)
- 10SM
02:15
Partly Cloudy
48°F / 9°C 39°F / 4°C 71% 30.15 in
(1021 mb)
NNW 5.8 mph
(NNW 9 kph)
- 10SM
01:55
Clear
48°F / 9°C 39°F / 4°C 71% 30.15 in
(1021 mb)
NNW 6.9 mph
(NNW 11 kph)
- 10SM
01:35
Clear
48°F / 9°C 39°F / 4°C 71% 30.12 in
(1020 mb)
NW 4.6 mph
(NW 7 kph)
- 10SM
01:15
Clear
48°F / 9°C 39°F / 4°C 71% 30.12 in
(1020 mb)
NNW 5.8 mph
(NNW 9 kph)
- 10SM
00:55
Clear
48°F / 9°C 41°F / 5°C 76% 30.12 in
(1020 mb)
NNW 3.5 mph
(NNW 6 kph)
- 10SM
00:35
Clear
48°F / 9°C 41°F / 5°C 76% 30.12 in
(1020 mb)
NW 4.6 mph
(NW 7 kph)
- 10SM
00:15
Clear
48°F / 9°C 41°F / 5°C 76% 30.12 in
(1020 mb)
NNW 4.6 mph
(NNW 7 kph)
- 10SM
Time Weather Temperature Dewpoint Humidity Pressure Winds Precip Visibility


Weather for websites

WeatherForYou.com, LLC is not responsible for any damages or problems caused by this service. Current weather conditions are obtained from the closest station including government and personal stations which may have varying degrees of accuracy. Weather forecasts are derived from the NOAA NDFD. Like all things, this site belongs to Jesus Christ... He just trusts me to maintain it. If you have any questions or comments email webmaster@weatherforyou.com

Copyright © 2014, WeatherForYou.com LLC. All rights reserved.